SB KEPS @ AMSAT $ORB12362.O Orbital Elements 12362.OSCAR
HR AMSAT ORBITAL ELEMENTS FOR OSCAR SATELLITES FROM WA5QGD FORT WORTH,TX December 27, 2012 BID: ORB12362.O TO ALL RADIO AMATEURS BT
Satellite: AO-07 Catalog number: 07530 Epoch time: 12362.76642523 Element set: 567 Inclination: 101.4182 deg RA of node: 352.5983 deg Eccentricity: 0.0011601 Arg of perigee: 263.4877 deg Mean anomaly: 156.0212 deg Mean motion: 12.53593682 rev/day Decay rate: -5.3e-07 rev/day^2 Epoch rev: 74430 Checksum: 286
Satellite: FO-29 Catalog number: 24278 Epoch time: 12362.26725731 Element set: 11 Inclination: 098.5781 deg RA of node: 077.6468 deg Eccentricity: 0.0349664 Arg of perigee: 249.4579 deg Mean anomaly: 106.8721 deg Mean motion: 13.52993942 rev/day Decay rate: -2.0e-07 rev/day^2 Epoch rev: 80806 Checksum: 339
Satellite: SO-33 Catalog number: 25509 Epoch time: 12362.27089854 Element set: 398 Inclination: 031.4323 deg RA of node: 320.8748 deg Eccentricity: 0.0351709 Arg of perigee: 093.0555 deg Mean anomaly: 042.7456 deg Mean motion: 14.28942600 rev/day Decay rate: 1.66e-06 rev/day^2 Epoch rev: 74028 Checksum: 312
Satellite: RS-22 Catalog number: 27939 Epoch time: 12362.87868508 Element set: 30 Inclination: 097.7981 deg RA of node: 193.6637 deg Eccentricity: 0.0013855 Arg of perigee: 015.3542 deg Mean anomaly: 344.8084 deg Mean motion: 14.64270007 rev/day Decay rate: 4.07e-06 rev/day^2 Epoch rev: 49422 Checksum: 323
Satellite: VO-52 Catalog number: 28650 Epoch time: 12361.99886437 Element set: 301 Inclination: 097.5805 deg RA of node: 023.3836 deg Eccentricity: 0.0027072 Arg of perigee: 125.5847 deg Mean anomaly: 234.7885 deg Mean motion: 14.83465068 rev/day Decay rate: 6.70e-06 rev/day^2 Epoch rev: 41355 Checksum: 331
Satellite: HO-68 Catalog number: 36122 Epoch time: 12362.72999661 Element set: 137 Inclination: 100.3341 deg RA of node: 057.9380 deg Eccentricity: 0.0007647 Arg of perigee: 029.4921 deg Mean anomaly: 330.6625 deg Mean motion: 13.16301009 rev/day Decay rate: -4.4e-07 rev/day^2 Epoch rev: 14585 Checksum: 289
/EX SB KEPS @ AMSAT $ORB12362.D Orbital Elements 12362.MICROS
HR AMSAT ORBITAL ELEMENTS FOR THE MICROSATS FROM WA5QGD FORT WORTH,TX December 27, 2012 BID: ORB12362.D TO ALL RADIO AMATEURS BT
Satellite: UO-11 Catalog number: 14781 Epoch time: 12361.86597364 Element set: 61 Inclination: 097.9280 deg RA of node: 059.4489 deg Eccentricity: 0.0010260 Arg of perigee: 125.8111 deg Mean anomaly: 234.4056 deg Mean motion: 14.80703739 rev/day Decay rate: 5.04e-06 rev/day^2 Epoch rev: 54843 Checksum: 302
Satellite: AO-16 Catalog number: 20439 Epoch time: 12361.86026545 Element set: 638 Inclination: 098.4549 deg RA of node: 300.0535 deg Eccentricity: 0.0009884 Arg of perigee: 312.6438 deg Mean anomaly: 080.7924 deg Mean motion: 14.32124217 rev/day Decay rate: 1.29e-06 rev/day^2 Epoch rev: 19757 Checksum: 310
Satellite: LO-19 Catalog number: 20442 Epoch time: 12362.90181758 Element set: 571 Inclination: 098.4228 deg RA of node: 303.4132 deg Eccentricity: 0.0010742 Arg of perigee: 298.8089 deg Mean anomaly: 093.0197 deg Mean motion: 14.32338693 rev/day Decay rate: 9.5e-07 rev/day^2 Epoch rev: 19791 Checksum: 318
Satellite: AO-27 Catalog number: 22825 Epoch time: 12362.85843458 Element set: 277 Inclination: 098.6007 deg RA of node: 302.8752 deg Eccentricity: 0.0009470 Arg of perigee: 074.8265 deg Mean anomaly: 318.9754 deg Mean motion: 14.29520871 rev/day Decay rate: 8.1e-07 rev/day^2 Epoch rev: 415 Checksum: 318
Satellite: IO-26 Catalog number: 22826 Epoch time: 12361.91168226 Element set: 31 Inclination: 098.5944 deg RA of node: 302.2649 deg Eccentricity: 0.0009997 Arg of perigee: 071.3456 deg Mean anomaly: 319.9672 deg Mean motion: 14.29800114 rev/day Decay rate: 1.04e-06 rev/day^2 Epoch rev: 414 Checksum: 296
Satellite: GO-32 Catalog number: 25397 Epoch time: 12361.87794051 Element set: 958 Inclination: 098.3875 deg RA of node: 331.3562 deg Eccentricity: 0.0002269 Arg of perigee: 075.1590 deg Mean anomaly: 284.9831 deg Mean motion: 14.23314588 rev/day Decay rate: 1.33e-06 rev/day^2 Epoch rev: 75143 Checksum: 327
Satellite: NO-44 Catalog number: 26931 Epoch time: 12362.44993528 Element set: 221 Inclination: 067.0525 deg RA of node: 342.2110 deg Eccentricity: 0.0004744 Arg of perigee: 262.4239 deg Mean anomaly: 097.6314 deg Mean motion: 14.29874401 rev/day Decay rate: 2.61e-06 rev/day^2 Epoch rev: 58687 Checksum: 300
Satellite: SO-50 Catalog number: 27607 Epoch time: 12362.38446249 Element set: 951 Inclination: 064.5593 deg RA of node: 067.0789 deg Eccentricity: 0.0067116 Arg of perigee: 208.7164 deg Mean anomaly: 151.0220 deg Mean motion: 14.72703313 rev/day Decay rate: 5.49e-06 rev/day^2 Epoch rev: 53841 Checksum: 305
Satellite: CO-55 Catalog number: 27844 Epoch time: 12362.91082986 Element set: 542 Inclination: 098.7033 deg RA of node: 008.4767 deg Eccentricity: 0.0010028 Arg of perigee: 029.7045 deg Mean anomaly: 036.6110 deg Mean motion: 14.21136604 rev/day Decay rate: 1.71e-06 rev/day^2 Epoch rev: 49240 Checksum: 286
Satellite: CO-57 Catalog number: 27848 Epoch time: 12362.73575154 Element set: 490 Inclination: 098.7114 deg RA of node: 007.7288 deg Eccentricity: 0.0009979 Arg of perigee: 036.0369 deg Mean anomaly: 018.7541 deg Mean motion: 14.20873178 rev/day Decay rate: 1.38e-06 rev/day^2 Epoch rev: 49231 Checksum: 336
Satellite: AO-51 Catalog number: 28375 Epoch time: 12361.55935669 Element set: 448 Inclination: 098.1751 deg RA of node: 318.1816 deg Eccentricity: 0.0082842 Arg of perigee: 177.9281 deg Mean anomaly: 182.2279 deg Mean motion: 14.41048584 rev/day Decay rate: 1.20e-06 rev/day^2 Epoch rev: 44647 Checksum: 334
Satellite: CP3 Catalog number: 31129 Epoch time: 12362.49108337 Element set: 350 Inclination: 097.8849 deg RA of node: 358.9558 deg Eccentricity: 0.0099470 Arg of perigee: 241.6552 deg Mean anomaly: 117.4560 deg Mean motion: 14.53402894 rev/day Decay rate: 4.57e-06 rev/day^2 Epoch rev: 30205 Checksum: 317
Satellite: CO-65 Catalog number: 32785 Epoch time: 12362.20063792 Element set: 508 Inclination: 097.7769 deg RA of node: 058.4711 deg Eccentricity: 0.0015563 Arg of perigee: 147.4250 deg Mean anomaly: 290.1666 deg Mean motion: 14.83483843 rev/day Decay rate: 1.028e-05 rev/day^2 Epoch rev: 25237 Checksum: 321
Satellite: PRISM Catalog number: 33493 Epoch time: 12362.72030598 Element set: 387 Inclination: 098.1936 deg RA of node: 148.3650 deg Eccentricity: 0.0018887 Arg of perigee: 032.5735 deg Mean anomaly: 327.6644 deg Mean motion: 14.85024934 rev/day Decay rate: 1.888e-05 rev/day^2 Epoch rev: 21246 Checksum: 328
Satellite: SOHLA-1 Catalog number: 33496 Epoch time: 12362.21866492 Element set: 926 Inclination: 098.1199 deg RA of node: 112.8899 deg Eccentricity: 0.0007635 Arg of perigee: 141.9860 deg Mean anomaly: 283.6406 deg Mean motion: 14.70150539 rev/day Decay rate: 3.29e-06 rev/day^2 Epoch rev: 21060 Checksum: 317
Satellite: SO-67 Catalog number: 35870 Epoch time: 12362.73748860 Element set: 644 Inclination: 097.2128 deg RA of node: 031.6382 deg Eccentricity: 0.0001787 Arg of perigee: 156.3957 deg Mean anomaly: 341.1407 deg Mean motion: 15.25539284 rev/day Decay rate: 3.277e-05 rev/day^2 Epoch rev: 18210 Checksum: 322
Satellite: TISAT-1 Catalog number: 36799 Epoch time: 12362.73885888 Element set: 660 Inclination: 098.0483 deg RA of node: 080.4152 deg Eccentricity: 0.0013489 Arg of perigee: 264.6415 deg Mean anomaly: 095.3258 deg Mean motion: 14.82693672 rev/day Decay rate: 1.331e-05 rev/day^2 Epoch rev: 13316 Checksum: 332
Satellite: STUDSAT Catalog number: 36801 Epoch time: 12362.82250553 Element set: 557 Inclination: 098.0564 deg RA of node: 082.2783 deg Eccentricity: 0.0011621 Arg of perigee: 247.6407 deg Mean anomaly: 112.3571 deg Mean motion: 14.86428877 rev/day Decay rate: 4.326e-05 rev/day^2 Epoch rev: 13326 Checksum: 295
Satellite: FO-69 Catalog number: 37227 Epoch time: 12362.24329800 Element set: 0023 Inclination: 071.9716 deg RA of node: 245.8739 deg Eccentricity: 0.0017596 Arg of perigee: 315.2521 deg Mean anomaly: 044.7220 deg Mean motion: 14.77321650 rev/day Decay rate: 3.15e-06 rev/day^2 Epoch rev: 00351 Checksum: 282
Satellite: FO-70 Catalog number: 37380 Epoch time: 12362.21401249 Element set: 0023 Inclination: 071.9742 deg RA of node: 246.7439 deg Eccentricity: 0.0018298 Arg of perigee: 312.8941 deg Mean anomaly: 047.0686 deg Mean motion: 14.77064981 rev/day Decay rate: 2.93e-06 rev/day^2 Epoch rev: 00358 Checksum: 309
Satellite: ALMASAT-1 Catalog number: 38078 Epoch time: 12362.75123692 Element set: 861 Inclination: 069.4793 deg RA of node: 236.3751 deg Eccentricity: 0.0726079 Arg of perigee: 004.8906 deg Mean anomaly: 355.8724 deg Mean motion: 14.17348889 rev/day Decay rate: 2.3743e-04 rev/day^2 Epoch rev: 4489 Checksum: 353
Satellite: XATCOBEO Catalog number: 38082 Epoch time: 12362.59000972 Element set: 805 Inclination: 069.4804 deg RA of node: 226.6522 deg Eccentricity: 0.0655090 Arg of perigee: 359.5142 deg Mean anomaly: 000.5261 deg Mean motion: 14.35958946 rev/day Decay rate: 5.4613e-04 rev/day^2 Epoch rev: 4514 Checksum: 298
/EX SB KEPS @ AMSAT $ORB12362.W Orbital Elements 12362.WEATHER
HR AMSAT ORBITAL ELEMENTS FOR WEATHER SATELLITES FROM WA5QGD FORT WORTH,TX December 27, 2012 BID: ORB12362.W TO ALL RADIO AMATEURS BT
Satellite: NOAA-10 Catalog number: 16969 Epoch time: 12362.12044979 Element set: 189 Inclination: 098.5636 deg RA of node: 027.5611 deg Eccentricity: 0.0012527 Arg of perigee: 034.8327 deg Mean anomaly: 358.0643 deg Mean motion: 14.27604730 rev/day Decay rate: 4.3e-07 rev/day^2 Epoch rev: 36739 Checksum: 312
Satellite: NOAA-11 Catalog number: 19531 Epoch time: 12362.19846836 Element set: 181 Inclination: 098.7234 deg RA of node: 083.2089 deg Eccentricity: 0.0011552 Arg of perigee: 038.3298 deg Mean anomaly: 014.0742 deg Mean motion: 14.14997251 rev/day Decay rate: 1.6e-07 rev/day^2 Epoch rev: 25180 Checksum: 295
